Volver al catálogo

STARLINK-34278

ActivoComunicacionesVLEO
NORAD 64391·PAYLOAD·🇺🇸 United States

Lanzado Jun 13, 2025 desde Cape Canaveral Space Force Station

Loading…

Próximos Pases (próximas 24 horas)

TLE

ActualizadoSource: CelesTrak SupGP

Época: Sep 15, 2026, 03:37 UTC

1 64391C 25127X   26258.15118056 -.00016250  00000+0 -58859-3 0  2581
2 64391  43.0027 189.5094 0001307 270.4754 180.1882 15.27584939    19

Sigue STARLINK-34278 en tiempo real con AllMySat

Download on the App Store